This demonstration page uses our WeatherBlox Daily Observations layout. Learn more.

Left ArrowRight Arrow

39.92423, -83.80882

Hourly Observations for March 14, 2018

Temp ( °F °C ) Dew Point ( °F °C ) Humidity (%) Winds ( mph kmh ) Pressure ( in mb ) Visibility ( mi km ) Precip ( " mm )
12:56 am 00:56 Partly Cloudy with Isolated Snow Showers 23 -5 18 -7.8 81 81 WNW 10 17 30.07 1018 9 14 N/A
1:56 am 01:56 Partly Cloudy with Isolated Snow Showers 24 -4.4 21 -6.1 88 88 NW 10 17 30.06 1018 5 8 N/A
2:56 am 02:56 Partly Cloudy with Isolated Snow Showers 25 -3.9 21 -6.1 85 85 NW 13 20 30.07 1018 6 10 N/A
3:56 am 03:56 Partly Cloudy with Isolated Snow Showers 24 -4.4 21 -6.1 88 88 WNW 10 17 30.06 1018 9 14 N/A
4:56 am 04:56 Clear 22 -5.6 19 -7.2 89 89 WNW 10 17 30.06 1018 10 16 N/A
5:56 am 05:56 Partly Cloudy with Isolated Snow Showers 23 -5 21 -6.1 92 92 WNW 12 19 30.07 1018 9 14 N/A
6:56 am 06:56 Partly Cloudy with Isolated Snow Showers 23 -5 20 -6.7 88 88 WNW 9 15 30.07 1018 9 14 N/A
7:56 am 07:56 Partly Cloudy with Isolated Snow Showers 24 -4.4 20 -6.7 84 84 WNW 9 15 30.08 1019 9 14 N/A
8:56 am 08:56 Sunny 25 -3.9 17 -8.3 72 72 WNW 15 24 30.09 1019 10 16 N/A
9:56 am 09:56 Partly Cloudy with Isolated Snow Showers 25 -3.9 17 -8.3 72 72 NW 14 22 30.10 1019 9 14 N/A
10:56 am 10:56 Partly Cloudy with Isolated Snow Showers 26 -3.3 17 -8.3 69 69 NW 13 20 30.11 1020 9 14 N/A
11:56 am 11:56 Partly Cloudy with Isolated Snow Showers 28 -2.2 19 -7.2 69 69 WNW 17 28 30.10 1019 9 14 N/A
12:56 pm 12:56 Partly Cloudy with Isolated Snow Showers 30 -1.1 21 -6.1 69 69 W 13 20 30.10 1019 9 14 N/A
1:56 pm 13:56 Partly Cloudy with Isolated Snow Showers 31 -0.6 22 -5.6 69 69 W 17 28 30.07 1018 9 14 N/A
2:56 pm 14:56 Sunny 34 1.1 21 -6.1 59 59 W 16 26 30.04 1017 10 16 N/A
3:56 pm 15:56 Sunny 36 2.2 19 -7.2 50 50 W 17 28 30.00 1016 10 16 N/A
6:56 pm 18:56 Sunny 36 2.2 17 -8.3 46 46 W 16 26 29.96 1015 10 16 N/A
7:56 pm 19:56 Clear 33 0.6 18 -7.8 54 54 WSW 13 20 29.96 1015 10 16 N/A
8:56 pm 20:56 Clear 30 -1.1 20 -6.7 66 66 WSW 8 13 29.96 1015 10 16 N/A
9:56 pm 21:56 Clear 29 -1.7 19 -7.2 66 66 SW 6 9 29.96 1015 10 16 N/A
10:56 pm 22:56 Clear 29 -1.7 19 -7.2 66 66 SW 8 13 29.96 1014 10 16 N/A
11:56 pm 23:56 Clear 30 -1.1 18 -7.8 61 61 SW 9 15 29.92 1013 10 16 N/A

Powered by AerisWeather